CAPE
2 2 2 0 0 0 0 0 0 0 0 0 0 0 0 0 0 0 0 0 0 0 0 0 0 0 0 0 0 0 0 0 0 0 0 0 0 0 0 0 0 0 0 0
1 0 0 0 0 0 0 0 0 0 0 0 0 0 0 0 0 0 0 0 0 0 0 0 0 0 0 0 0 0 0 0 0 0 0 0 0 0 0 0 0 0 0 0
0 0 0 0 0 0 0 0 0 0 0 0 0 0 0 0 0 0 0 0 0 0 0 0 0 0 0 0 0 0 0 0 0 0 0 0 0 0 0 0 0 0 0 0
0 0 0 0 0 0 0 0 0 0 0 0 0 0 0 0 0 0 0 0 0 0 0 0 0 0 0 0 0 0 0 0 0 0 0 0 0 0 0 0 0 0 0 0
0 1 0 0 0 0 0 0 0 0 0 0 0 0 0 0 0 0 0 0 0 0 0 0 0 0 0 0 0 0 0 0 0 0 0 0 0 0 0 0 0 0 0 0
1 2 0 0 0 0 0 0 0 0 0 0 0 0 0 0 0 0 0 0 0 0 0 0 0 0 0 0 0 0 0 0 0 0 0 0 0 0 0 0 0 0 0 4
1 1 1 0 0 0 0 0 0 0 0 0 0 0 0 0 0 0 0 0 0 0 0 0 0 0 0 0 0 0 0 0 0 0 0 0 0 0 0 0 0 0 9 23
2 1 1 2 0 0 0 0 0 0 0 0 0 0 0 0 0 0 0 0 0 0 0 0 0 0 0 0 0 0 0 0 0 0 0 0 0 0 0 1 10 7 28 39
6 6 2 0 1 0 0 0 0 0 0 0 0 0 0 0 0 0 0 0 0 0 0 0 0 0 0 0 0 1 0 0 0 0 0 0 53 62 13 0 0 73 67 77
8 8 5 0 0 0 0 0 0 0 0 0 0 0 0 0 0 0 0 0 0 0 0 0 0 0 0 0 5 16 6 0 0 0 0 0 0 123 28 0 84 262 97 99
5 5 7 2 0 0 0 0 2 0 0 0 0 0 0 0 0 0 6 0 0 0 0 0 0 0 0 1 2 16 19 24 17 28 31 7 187 112 50 160 217 110 115 185
3 6 9 4 1 0 0 0 17 17 4 0 0 0 0 0 0 0 0 4 5 40 2 0 0 0 0 1 3 10 0 0 6 31 157 247 116 81 2 31 87 125 227 191
8 5 13 9 0 0 0 0 1 5 12 0 0 0 0 0 0 0 0 0 0 1 32 6 4 20 5 10 24 17 11 13 11 1 20 0 21 30 0 1 22 57 135 189
23 8 12 12 5 1 0 0 1 1 3 0 0 0 0 0 0 0 0 0 0 0 6 26 6 6 34 23 26 20 37 44 20 27 30 0 30 41 39 46 0 0 33 197
28 15 12 12 6 4 0 1 0 1 4 2 0 0 0 0 0 0 0 0 0 4 23 17 8 15 30 17 44 17 34 12 22 27 28 32 34 13 11 0 0 0 34 81
21 29 12 16 3 0 4 1 1 0 5 7 0 0 0 0 0 0 0 0 2 5 21 14 22 19 40 45 34 47 43 0 4 6 2 3 0 0 0 0 0 31 225 298
11 14 17 16 0 3 4 0 0 0 17 20 2 0 0 0 0 0 0 0 7 26 21 38 37 37 72 64 66 46 44 36 2 0 0 0 0 0 0 0 0 80 240 683
2 7 11 10 3 1 0 0 0 0 21 23 7 0 0 0 31 5 4 14 12 42 56 78 60 92 79 85 47 34 31 38 21 2 0 0 21 31 55 38 4 46 486 748
0 1 5 15 7 2 1 1 0 0 8 4 11 0 2 128 108 146 30 45 48 24 70 29 118 35 47 15 47 49 59 37 26 95 57 43 16 97 195 177 122 269 579 729
0 3 23 14 6 11 2 0 35 17 24 2 2 0 11 90 191 187 81 74 52 85 27 67 71 44 134 138 150 90 101 39 31 47 14 12 141 161 235 379 380 446 688 810
8 28 16 18 3 24 29 23 19 21 5 2 0 0 1 21 51 60 99 96 99 54 66 20 94 39 63 173 162 279 260 179 156 106 128 147 168 188 273 539 837 922 970 941
22 16 3 4 40 26 21 14 26 11 10 11 10 21 12 39 68 115 139 0 2 11 19 55 134 125 610 515 510 492 456 413 341 332 365 318 281 270 338 540 779 967 964 960
20 23 31 30 23 20 13 11 18 17 55 100 174 130 42 17 62 67 96 76 11 71 130 88 247 452 473 577 557 448 558 511 463 429 353 372 381 425 463 446 486 707 797 828
28 3 0 5 8 13 20 25 55 154 143 95 152 4 56 52 45 0 7 74 56 9 8 89 368 549 466 231 247 317 286 340 286 253 346 338 382 251 276 434 637 668 571 528
2 2 1 2 21 51 22 32 26 47 112 102 94 85 66 43 33 54 75 0 0 47 15 62 231 289 127 74 6 0 75 135 263 254 188 35 4 3 43 203 244 256 255 227
4 7 1 4 50 69 71 39 74 137 149 225 62 37 44 27 6 22 22 29 3 96 107 171 92 154 5 5 41 1 60 182 201 190 300 120 59 128 41 8 13 23 6 0
22 4 10 0 1 2 4 9 80 151 195 108 178 136 14 0 23 45 141 49 62 71 148 273 329 340 263 303 85 112 203 148 193 353 343 201 145 74 54 6 11 7 2 0
CIN
0 0 0 0 0 0 0 0 0 0 0 0 0 0 0 0 0 0 0 0 0 0 0 0 0 0 0 0 0 0 0 0 0 0 0 0 0 0 0 0 0 0 0 0
-1 0 0 0 0 0 0 0 0 0 0 0 0 0 0 0 0 0 0 0 0 0 0 0 0 0 0 0 0 0 0 0 0 0 0 0 0 0 0 0 0 0 0 0
0 0 0 0 0 0 0 0 0 0 0 0 0 0 0 0 0 0 0 0 0 0 0 0 0 0 0 0 0 0 0 0 0 0 0 0 0 0 0 0 0 0 0 0
0 0 0 0 0 0 0 0 0 0 0 0 0 0 0 0 0 0 0 0 0 0 0 0 0 0 0 0 0 0 0 0 0 0 0 0 0 0 0 0 0 0 0 0
0 -2 0 0 0 0 0 0 0 0 0 0 0 0 0 0 0 0 0 0 0 0 0 0 0 0 0 0 0 0 0 0 0 0 0 0 0 0 0 0 0 0 0 0
-6 -3 0 0 0 0 0 0 0 0 0 0 0 0 0 0 0 0 0 0 0 0 0 0 0 0 0 0 0 0 0 0 0 0 0 0 0 0 0 0 0 0 0 -5
-6 -3 -2 0 0 0 0 0 0 0 0 0 0 0 0 0 0 0 0 0 0 0 0 0 0 0 0 0 0 0 0 0 0 0 0 0 0 0 0 0 0 0 -3 -5
-12 -9 -4 -4 0 0 0 0 0 0 0 0 0 0 0 0 0 0 0 0 0 0 0 0 0 0 0 0 0 0 0 0 0 0 0 0 0 0 0 -1 -1 -8 -3 -5
-11 -9 -10 0 -3 0 0 0 0 0 0 0 0 0 0 0 0 0 0 0 0 0 0 0 0 0 0 0 -1 -5 0 0 0 0 0 0 -3 -29 -11 0 0 -19 -6 -10
-12 -9 -8 -7 0 0 0 0 -1 0 0 0 0 0 0 0 0 0 0 0 0 0 0 0 0 0 0 0 -6 -7 -5 0 0 0 0 0 -2 -4 -8 0 -4 -3 -3 -4
-17 -16 -12 -10 0 0 0 -1 -1 -1 0 0 0 0 0 0 0 0 -4 -1 0 0 0 0 0 0 0 -2 -3 -6 -4 -5 -5 -7 -5 -4 -10 -6 -4 -22 -18 -4 -2 -3
-18 -18 -14 -11 -14 -5 0 0 -5 -1 0 0 0 0 0 0 0 0 0 -2 -4 -5 -3 0 0 0 0 -2 -5 -9 0 0 -5 -6 -8 -5 -7 -27 -3 -39 -24 -9 -2 -5
-14 -13 -6 -11 -9 -11 0 0 -1 -3 -1 0 0 0 0 0 0 0 0 0 0 -4 -5 -7 -5 -4 -4 -5 -9 -5 -5 -7 -4 -1 -12 0 -3 -6 0 0 -3 -10 -3 -4
-12 -11 -10 -7 -12 -24 0 0 -1 -1 -1 0 0 0 0 0 0 0 0 0 0 0 -3 -3 -5 -4 -5 -6 -9 -8 -6 -2 -5 -4 -3 0 -4 -3 -3 -5 0 0 -17 -3
-10 -14 -13 -12 -10 -16 0 -1 0 -2 -1 -1 0 0 0 0 0 0 0 0 0 -3 -2 -2 -4 -6 -8 -13 -7 -7 -8 -12 -5 -5 -3 -4 -4 -12 -4 -1 0 0 -14 -4
-13 -8 -14 -13 -14 -14 -3 0 -2 0 -3 -1 0 0 0 0 0 0 0 0 -3 -4 -5 -4 -4 -17 -6 -7 -7 -6 -6 0 -6 -5 -4 -4 0 0 0 0 0 -33 -2 -2
-12 -11 -20 -14 -24 -10 -2 0 0 0 -2 -1 -1 0 -1 0 0 0 0 0 -3 -3 -2 -2 -3 -5 -3 -7 -5 -4 -4 -6 -3 0 0 0 0 0 0 0 0 -20 -15 -1
-26 -20 -31 -34 -33 -20 0 0 0 0 0 0 -1 0 0 0 -3 -4 -3 -6 -7 -4 -6 -3 -4 -4 -9 -9 -7 -4 -5 -6 -5 -1 0 0 -5 -29 -28 -49 -33 -40 -2 -1
0 -30 -27 -6 -4 -1 -1 0 0 0 -2 0 -1 0 -5 -2 -4 -5 -13 -7 -5 -10 -6 -3 -3 -26 -3 -3 -8 -3 -4 -3 -2 -5 -5 -6 -7 -6 -1 -2 -7 -4 -2 -2
0 -2 0 0 -4 -18 -16 0 0 -1 0 0 0 0 -2 -5 -1 -5 -6 -5 -13 -1 -5 -4 -5 -15 -11 -7 -5 -5 -19 -3 -4 -2 -5 -4 -3 -3 -1 -2 -2 -4 -3 0
-2 0 0 -4 -15 -1 -1 0 0 0 0 0 0 0 -1 -8 -4 -3 -7 -9 -5 -3 -5 -4 -3 -26 -21 -22 -3 -2 -2 -2 -1 -1 -2 -2 -1 -4 -2 -3 -1 -1 -1 -1
-4 -6 -2 -4 0 0 0 -1 -1 -1 -2 -2 -3 -6 -5 -4 -3 -2 -5 0 -15 -3 -26 -19 -3 -31 -2 -4 -1 -5 -2 -1 -2 -1 -1 -1 -2 0 -1 -1 -1 -1 -2 -2
-2 0 -1 0 -1 0 0 -1 -1 -1 -2 -1 -3 0 -3 -3 -2 -2 -8 0 -1 -177 -2 -3 -4 -24 -4 -4 -13 -9 -1 -1 -1 0 0 -1 -1 -1 -2 -1 -1 -1 -1 -3
0 -2 0 -1 -1 -2 -5 -8 -6 -3 -2 -1 -1 -36 -1 -2 -1 0 0 -2 -5 -12 -18 -5 -10 0 -1 -12 -2 -2 -1 -1 -2 -5 0 -1 -2 -1 -8 -23 -2 -4 -10 -6
0 0 -1 -1 -4 -3 -4 -5 -3 -2 -1 -1 -1 -1 -1 -1 -9 -2 -1 0 0 -8 -69 -2 -4 -3 -3 -8 -4 0 -8 -4 -1 -1 -1 -19 -33 -42 -26 -5 -2 -1 -1 -2
-1 0 0 -6 0 -1 0 -1 0 -2 -2 -2 -1 -3 -1 -1 -3 -1 -1 -9 0 0 -1 -1 -8 -3 -10 -3 -15 -13 -9 -1 -2 -1 -1 -26 -23 -1 -8 -29 -10 -24 -33 0
0 -4 -1 0 0 0 -4 -6 -1 0 0 0 -1 -1 -1 0 -19 -2 -1 -1 -4 -2 -1 -1 0 0 -1 0 -3 -1 0 -3 -3 -4 0 0 -10 0 -1 -27 -31 -27 -24 0
Wind_Speed
34 34 34 35 35 37 27 23 21 15 17 20 18 23 19 19 20 15 18 18 20 17 14 15 14 15 16 11 18 14 14 16 14 12 14 17 21 22 22 20 23 21 27 28
33 33 33 33 33 31 27 24 27 17 16 21 19 18 22 19 17 17 15 15 15 15 16 17 17 14 14 14 15 19 16 14 19 14 12 11 16 18 13 18 22 22 24 23
33 33 33 33 32 31 25 23 22 15 16 23 24 24 19 17 17 21 18 19 16 15 16 13 17 16 13 14 17 17 19 20 19 22 28 26 20 16 19 24 25 27 25 31
32 32 33 33 33 32 22 19 21 22 19 17 22 22 23 20 18 17 17 18 18 16 17 16 16 16 10 14 14 17 17 22 22 24 27 28 27 26 27 23 23 26 32 35
31 31 31 32 32 32 19 23 23 21 27 24 24 21 22 23 21 20 19 21 22 18 21 20 20 18 17 18 10 16 16 22 24 27 28 27 27 27 26 26 26 28 30 31
29 29 30 30 30 27 21 22 22 22 23 22 23 24 23 22 23 21 23 21 22 20 23 21 21 21 21 20 21 20 22 25 27 30 29 30 29 28 25 24 23 25 27 26
28 27 27 27 27 25 23 24 24 24 27 24 24 24 22 23 22 24 21 19 24 21 22 21 24 28 26 22 22 21 24 24 27 31 29 31 30 21 22 23 24 23 25 24
27 26 26 25 25 25 24 20 21 24 27 27 25 25 25 25 24 24 26 25 24 24 25 26 27 27 26 26 24 23 22 25 28 28 27 27 28 19 19 22 23 25 24 22
26 25 25 24 24 25 24 21 20 21 24 24 25 25 26 28 27 27 26 25 25 26 26 25 29 31 28 28 24 16 23 21 25 27 29 29 21 17 17 20 30 18 18 21
26 25 24 23 23 23 24 22 18 21 25 28 25 25 26 23 26 29 28 24 25 21 27 29 30 31 24 29 25 18 21 21 23 23 27 28 24 13 15 26 21 19 22 23
25 25 23 22 22 21 23 23 20 23 25 30 27 28 27 27 26 27 23 24 24 28 27 30 31 32 31 30 27 25 24 23 23 22 27 30 13 14 22 20 20 22 24 23
25 25 23 21 21 20 22 21 15 19 23 28 29 28 28 29 31 31 28 30 28 22 26 27 31 32 31 30 31 21 29 29 29 27 21 17 17 17 19 20 22 22 20 19
24 24 23 21 20 19 20 24 23 22 26 31 27 28 25 22 25 26 29 28 29 31 31 32 32 33 29 30 26 29 26 21 26 29 25 25 21 18 20 18 20 21 21 18
23 22 22 21 19 19 20 23 21 21 24 28 23 19 23 22 21 22 25 29 33 30 32 33 35 35 27 33 34 28 23 19 20 24 24 25 21 19 21 18 19 21 20 17
22 22 21 20 19 19 22 24 23 19 20 26 27 34 34 25 23 23 24 25 28 31 32 34 37 36 37 35 32 33 27 27 28 29 25 22 22 22 23 22 18 22 20 19
20 20 20 19 18 19 21 19 13 17 18 24 27 20 26 24 23 19 21 24 26 30 35 37 39 42 36 39 41 35 31 30 32 33 29 27 26 27 25 20 19 17 22 14
19 18 18 18 17 19 20 21 20 22 20 22 26 26 19 18 20 21 20 19 24 24 26 33 36 38 37 39 42 33 27 24 25 25 24 23 22 24 20 14 11 15 16 13
16 16 17 18 19 23 25 22 15 16 17 21 24 25 28 18 21 19 15 18 19 22 25 24 23 28 29 33 36 31 33 31 29 29 25 24 22 23 20 17 15 12 11 7
13 14 16 17 18 18 19 6 6 10 16 20 22 25 26 18 21 17 10 13 18 21 22 23 22 28 27 25 28 28 24 20 20 16 17 20 19 22 22 17 7 9 8 4
11 13 16 17 14 6 7 10 12 15 14 15 20 22 21 25 22 21 5 4 17 15 19 10 22 15 40 37 28 15 16 18 21 21 21 19 15 18 17 18 10 1 3 3
12 15 14 14 9 8 11 13 12 11 16 16 18 18 33 31 29 28 25 24 25 23 19 22 12 31 37 33 19 22 21 27 27 26 25 24 21 19 17 16 15 11 8 10
13 15 16 14 13 13 14 13 16 17 16 15 24 27 29 29 27 27 25 18 23 20 24 17 28 24 10 10 19 19 20 21 21 20 19 17 19 22 22 15 10 7 7 10
18 17 17 14 16 24 25 27 24 23 22 20 22 22 24 26 26 25 24 22 25 17 10 24 20 5 4 9 12 15 19 21 23 21 19 23 22 24 24 19 12 9 10 16
17 17 20 21 22 24 27 26 20 21 20 20 20 20 23 24 25 23 21 21 20 19 21 19 10 9 10 11 14 16 17 17 16 16 16 18 19 20 22 24 15 13 11 12
22 23 23 26 24 22 20 22 21 21 21 20 20 21 20 23 22 22 19 16 20 20 16 11 10 9 12 15 17 17 16 17 16 16 12 15 16 16 15 10 7 6 8 10
21 22 21 21 22 20 20 21 21 22 22 21 22 20 22 22 19 21 21 18 15 12 13 11 12 14 16 17 17 18 20 18 16 13 9 12 13 14 12 10 9 9 12 11
20 20 21 23 21 22 21 22 21 19 20 24 22 22 21 18 19 18 8 8 10 12 12 12 13 13 13 13 12 12 9 9 10 10 11 14 18 18 17 14 12 12 13 11
Wind_Direction
318 318 318 318 319 316 316 301 301 325 315 295 297 292 299 302 300 313 302 301 302 306 304 306 301 309 313 332 315 322 328 322 316 313 347 327 317 316 315 319 322 320 317 316
314 315 315 316 317 324 310 298 292 315 306 294 293 298 298 299 302 304 307 303 301 305 304 302 303 309 327 324 319 321 324 324 315 315 310 322 330 326 322 321 320 316 316 320
314 315 315 315 314 315 313 302 299 307 300 292 292 296 297 297 303 297 301 302 307 301 298 304 309 304 318 318 316 318 317 313 311 308 307 318 323 322 315 312 311 313 313 316
314 314 316 316 313 310 313 303 299 300 300 298 295 294 296 293 294 298 303 298 293 295 294 294 296 301 310 316 316 315 315 307 309 308 308 307 308 308 308 306 305 305 312 313
314 314 314 314 312 306 307 297 299 304 288 294 293 293 290 288 294 295 297 290 297 292 290 292 294 297 296 301 315 315 311 308 312 308 308 307 304 305 304 303 304 305 309 313
312 315 315 316 315 309 302 309 300 297 294 293 287 287 288 291 291 295 291 298 297 291 296 295 301 302 300 305 301 305 307 306 309 306 309 309 306 307 307 306 308 311 311 322
310 313 317 316 316 314 304 304 296 291 285 288 287 291 289 291 292 287 299 294 291 302 304 300 293 292 293 292 295 298 299 301 305 304 306 300 306 321 319 320 320 320 317 325
304 305 310 313 313 309 304 308 300 292 285 288 288 287 287 289 290 288 285 290 295 303 297 290 288 288 288 287 289 290 294 298 298 297 300 305 308 304 314 320 319 323 321 331
306 304 304 308 310 307 300 301 302 295 290 290 292 291 291 287 286 286 286 286 291 293 289 284 281 282 288 290 287 287 298 297 294 298 299 301 321 324 333 331 314 342 335 333
303 303 303 304 310 308 298 297 303 294 289 286 292 289 292 296 289 287 291 291 286 289 282 278 279 282 284 281 286 291 293 293 293 296 298 300 308 325 334 314 321 336 332 333
300 301 302 303 305 311 301 296 302 292 289 285 291 291 289 288 287 287 307 289 287 285 279 278 279 280 282 284 282 281 285 289 291 295 297 297 318 321 308 327 328 329 329 333
298 299 300 302 304 309 307 298 318 306 293 287 297 294 291 286 284 288 287 284 293 298 286 282 282 280 280 283 280 280 278 283 292 297 314 317 328 323 327 326 327 328 331 334
294 297 299 299 302 306 304 298 301 303 297 297 294 295 295 286 284 285 282 283 286 283 289 286 286 284 281 279 277 282 288 285 289 289 291 300 305 313 322 327 326 329 331 335
292 294 297 296 299 302 301 297 302 302 302 299 305 311 301 300 294 282 279 281 281 287 288 279 277 277 284 278 281 284 292 294 284 292 293 293 302 312 313 321 323 325 328 331
288 292 295 296 297 300 297 295 296 294 299 301 303 299 296 294 295 290 284 278 279 278 278 276 272 274 275 279 280 274 283 280 285 289 296 301 303 308 310 312 314 318 319 323
286 290 293 295 297 300 300 307 302 296 294 305 304 310 303 301 297 284 283 282 277 277 275 273 272 269 272 273 271 276 279 282 285 287 294 296 300 302 306 307 310 314 315 321
287 289 292 294 295 293 289 299 301 302 301 302 305 309 306 309 299 290 283 277 280 276 275 271 270 269 271 266 266 274 284 287 289 292 296 296 302 306 309 312 306 312 318 321
290 290 292 295 295 292 292 288 293 306 299 303 302 300 302 305 305 297 287 280 273 270 274 279 266 270 266 269 267 272 276 282 286 289 291 294 301 304 309 308 306 311 314 319
294 295 297 298 296 297 300 315 309 309 304 304 301 297 301 324 309 305 294 291 280 280 264 263 272 269 266 268 271 273 279 285 290 299 301 298 306 310 308 313 301 305 304 309
298 300 298 297 303 344 350 321 307 307 308 305 297 295 299 292 293 286 141 134 211 292 190 235 205 220 232 249 263 279 280 284 287 291 294 301 311 313 316 319 325 298 155 333
296 293 294 310 322 318 312 310 310 320 315 305 297 197 224 233 229 225 238 204 189 194 174 168 162 208 210 200 267 267 274 270 269 276 284 288 298 306 315 315 315 319 321 319
289 285 285 286 290 298 297 301 283 249 252 225 210 221 223 236 238 224 231 191 217 181 225 146 193 230 287 269 262 268 271 273 280 288 295 306 301 294 295 310 322 325 328 321
261 261 262 276 269 232 224 201 208 200 206 213 214 217 214 215 216 220 222 213 199 175 270 228 261 19 253 294 286 281 275 273 275 287 297 288 298 290 288 295 302 318 314 302
247 248 242 238 221 214 206 208 225 228 233 230 223 227 211 211 193 203 204 223 233 235 220 245 311 310 314 303 287 283 279 291 300 302 316 312 310 307 301 278 284 297 308 314
203 199 205 204 214 224 232 237 236 232 226 220 215 211 205 197 211 209 217 228 227 224 266 319 315 340 293 282 284 290 289 284 293 283 314 343 346 335 310 339 351 358 351 346
196 199 209 214 219 222 225 229 225 222 218 209 203 202 186 174 197 201 195 223 242 299 338 320 293 283 282 252 252 236 216 239 256 279 358 2 331 5 22 14 352 341 2 347
195 206 208 210 218 222 222 220 223 228 217 199 198 189 197 200 200 225 237 307 337 337 321 301 288 289 251 239 247 228 275 291 304 340 35 51 58 51 42 36 19 10 17 10